[[{"header":{"parameterUnit":"m.s-1","parameterCategory":1,"la1":30.2991,"la2":30.254,"lo1":-89.0895,"lo2":-89.0444,"dy":0.0017,"dx":0.0017,"nx":28,"ny":28,"refTime":"2025-11-07T03:00:00:Z","depth":0,"parameterNumber":2,"parameterNumberName":"U-component_of_WINDS"},"data":[0,0,0,0,0,0,0,0,0,0,0,0,0,0,0,0,0,0,0,0,0,0,0,0,0,0,0,0,0,0,0,0,0,0,0,0,0,0,0,0,0,0,0,0,0,0,0,0,0,0,0,0,0,0,0,0,0,0,-2.2922,-2.2923,0,-2.2961,-2.2962,-2.2962,-2.2938,-2.2937,-2.2936,-2.2935,-2.2973,-2.2975,-2.2977,0,0,0,0,0,0,0,0,0,0,0,0,0,-2.2826,-2.2828,-2.2922,-2.2923,-2.2923,-2.2961,-2.2962,-2.2962,-2.2938,-2.2937,-2.2936,-2.2934,-2.2972,-2.2975,-2.2977,0,0,0,0,0,0,0,0,0,0,0,0,0,-2.2866,-2.2828,-2.2922,-2.2916,-2.2916,-2.2961,-2.2962,-2.2962,-2.2939,-2.2937,-2.2935,-2.2934,-2.2972,-2.2975,-2.2978,-2.3031,0,0,-2.2987,-2.2988,0,0,0,0,0,0,0,0,-2.2864,-2.287,-2.2916,-2.2917,-2.2916,-2.2943,-2.2942,-2.2985,-2.2939,-2.293,-2.2935,-2.2933,-2.2964,-2.2968,-2.2979,-2.3032,-2.3034,-2.2987,-2.2989,-2.2991,-2.2991,0,0,0,0,0,0,0,-2.2861,-2.2868,-2.2938,-2.2917,-2.2917,-2.2911,-2.2915,-2.295,-2.2956,-2.2931,-2.2929,-2.2934,-2.2964,-2.2976,-2.298,-2.3035,-2.2987,-2.299,-2.2992,-2.2993,-2.3132,-2.3134,0,0,0,0,0,0,-2.2859,-2.2866,-2.2936,-2.2939,-2.2886,-2.2914,-2.2918,-2.2936,-2.2956,-2.2957,-2.2935,-2.2933,-2.2971,-2.2976,-2.2981,-2.3043,-2.2991,-2.2993,-2.2995,-2.313,-2.3132,-2.3134,0,0,0,0,0,0,-2.2857,-2.2866,-2.2935,-2.2902,-2.291,-2.2917,-2.2938,-2.2938,-2.295,-2.2959,-2.296,-2.2946,-2.297,-2.2976,-2.3018,-2.3044,-2.2995,-2.2998,-2.3128,-2.3131,-2.3133,-2.3168,0,0,0,0,0,0,-2.2855,-2.2865,-2.2886,-2.2903,-2.2912,-2.2972,-2.2939,-2.294,-2.2955,-2.2952,-2.297,-2.2971,-2.2969,-2.3014,-2.3021,-2.3047,-2.3,-2.3126,-2.3129,-2.3133,-2.3165,-2.3172,-2.3178,0,0,0,0,0,-2.2851,-2.2894,-2.2887,-2.2896,-2.2938,-2.2974,-2.2979,-2.2977,-2.2958,-2.2978,-2.2984,-2.2971,-2.304,-2.3018,-2.3026,-2.3054,-2.3124,-2.3128,-2.3132,-2.3162,-2.317,-2.3178,0,0,0,0,0,0,-2.288,-2.2896,-2.2889,-2.2938,-2.2955,-2.297,-2.2995,-2.2986,-2.3008,-2.3004,-2.3,-2.3004,-2.3047,-2.3055,-2.303,-2.3105,-2.3079,-2.3085,-2.3099,-2.3107,-2.3113,-2.311,-2.3003,0,0,0,0,0,-2.2892,-2.292,-2.2933,-2.2975,-2.2984,-2.2988,-2.3004,-2.3,-2.3017,-2.3024,-2.3033,-2.3049,-2.3075,-2.3091,-2.3115,-2.3166,-2.3169,-2.3189,-2.3196,-2.3201,-2.3206,-2.3232,-2.324,-2.3148,-2.3148,-2.3148,0,0,-2.2917,-2.2929,-2.2947,-2.2981,-2.2994,-2.3022,-2.2994,-2.3026,-2.3046,-2.3028,-2.3068,-2.3075,-2.3093,-2.3139,-2.316,-2.3147,-2.3232,-2.3206,-2.321,-2.3212,-2.3237,-2.3246,-2.3253,-2.3151,-2.315,-2.315,0,0,-2.2977,-2.299,-2.3026,-2.3039,-2.3058,-2.3061,-2.307,-2.3086,-2.309,-2.313,-2.3117,-2.3142,-2.3186,-2.3199,-2.3211,-2.3276,-2.3264,-2.3284,-2.3317,-2.3343,-2.335,-2.3356,-2.3378,-2.3386,-2.3289,-2.3289,-2.3289,0,-2.3005,-2.3048,-2.3046,-2.3078,-2.3092,-2.3078,-2.3114,-2.3127,-2.3153,-2.3163,-2.3149,-2.3203,-2.3214,-2.3263,-2.3278,-2.329,-2.3298,-2.3281,-2.3349,-2.3356,-2.3362,-2.3382,-2.3391,-2.3291,-2.3291,-2.3291,-2.329,0,-2.3081,-2.3111,-2.3138,-2.3164,-2.3182,-2.3216,-2.3218,-2.3236,-2.3231,-2.3235,-2.3275,-2.3289,-2.3314,-2.3326,-2.3322,-2.3373,-2.3365,-2.335,-2.3323,-2.3373,-2.3392,-2.34,-2.3294,-2.3293,-2.3293,-2.3292,0,0,-2.3159,-2.3183,-2.3193,-2.3204,-2.3225,-2.3247,-2.328,-2.3306,-2.3321,-2.334,-2.3366,-2.3404,-2.339,-2.3404,-2.3402,-2.3424,-2.3473,-2.3406,-2.3407,-2.3417,-2.3529,-2.3539,-2.3548,-2.3466,-2.3467,-2.3468,-2.3527,0,-2.3219,-2.3277,-2.3276,-2.333,-2.3356,-2.3343,-2.3372,-2.3387,-2.3392,-2.3415,-2.342,-2.3446,-2.3427,-2.3435,-2.3457,-2.3462,-2.3495,-2.3458,-2.3489,-2.349,-2.3484,-2.3558,-2.3569,-2.3624,-2.3535,-2.3536,-2.3537,0,-2.3297,-2.3318,-2.3375,-2.339,-2.3401,-2.3427,-2.345,-2.3473,-2.3489,-2.3491,-2.3507,-2.35,-2.3532,-2.3506,-2.355,-2.3525,-2.3538,-2.3542,-2.3544,-2.3546,-2.3516,-2.356,-2.3641,-2.3649,-2.3549,-2.3548,-2.3547,0,-2.3346,-2.3389,-2.3428,-2.3438,-2.3458,-2.3476,-2.3485,-2.35,-2.3515,-2.3535,-2.3545,-2.3568,-2.3581,-2.3599,-2.3598,-2.3579,-2.3643,-2.3616,-2.3644,-2.3644,-2.3657,-2.3655,-2.3739,-2.3668,-2.3667,-2.3667,-2.3667,0,-2.3413,-2.3447,-2.345,-2.3474,-2.3512,-2.351,-2.3548,-2.3555,-2.3568,-2.3593,-2.3583,-2.3606,-2.3605,-2.3628,-2.3627,-2.3663,-2.3669,-2.3671,-2.367,-2.3671,-2.367,-2.3678,-2.3673,-2.3669,-2.3669,-2.3668,-2.3668,0,-2.3474,-2.3478,-2.3519,-2.3534,-2.3539,-2.3566,-2.3578,-2.3601,-2.3605,-2.3635,-2.3642,-2.3648,-2.3675,-2.3676,-2.3707,-2.3707,-2.375,-2.3746,-2.3744,-2.3743,-2.377,-2.3766,-2.386,-2.3871,-2.3794,-2.3794,-2.3795,0,-2.3515,-2.3541,-2.3559,-2.3575,-2.3585,-2.3611,-2.3626,-2.3625,-2.3642,-2.3662,-2.3682,-2.3707,-2.3728,-2.377,-2.3777,-2.38,-2.3795,-2.3826,-2.3799,-2.3798,-2.3794,-2.3792,-2.3794,-2.3831,-2.3832,-2.3833,-2.3833,0,-2.3588,-2.3588,-2.3611,-2.3635,-2.3653,-2.3672,-2.3689,-2.3702,-2.3703,-2.3722,-2.3749,-2.3765,-2.3796,-2.3821,-2.3843,-2.3852,-2.3842,-2.3842,-2.385,-2.385,-2.3847,-2.3847,-2.3757,-2.384,-2.3839,-2.3839,-2.3838,-2.3838,-2.3639,-2.3661,-2.3677,-2.3703,-2.3716,-2.3732,-2.3753,-2.376,-2.3782,-2.3808,-2.3806,-2.3836,-2.3851,-2.388,-2.389,-2.3913,-2.3902,-2.3913,-2.3915,-2.3918,-2.392,-2.3845,-2.3917,-2.3917,-2.3917,-2.3916,-2.3916,0,-2.371,-2.3719,-2.3743,-2.3767,-2.3787,-2.3778,-2.3796,-2.3813,-2.3839,-2.3854,-2.3875,-2.3905,-2.3929,-2.3938,-2.3961,-2.3977,-2.3974,-2.3983,-2.3981,-2.3983,-2.3929,-2.3919,-2.3986,-2.3986,-2.3986,-2.3986,-2.3986,-2.3986,-2.3749,-2.3785,-2.3788,-2.383,-2.384,-2.3869,-2.388,-2.3894,-2.3906,-2.3941,-2.3961,-2.3967,-2.3979,-2.4003,-2.4024,-2.4026,-2.4034,-2.4046,-2.4045,-2.3994,-2.3987,-2.398,-2.3971,-2.4048,-2.4048,-2.4098,-2.4098,-2.4099]},{"header":{"parameterUnit":"m.s-1","parameterCategory":1,"la1":30.2991,"la2":30.254,"lo1":-89.0895,"lo2":-89.0444,"dy":0.0017,"dx":0.0017,"nx":28,"ny":28,"refTime":"2025-11-07T03:00:00:Z","depth":0,"parameterNumber":3,"parameterNumberName":"V-component_of_WINDS"},"data":[0,0,0,0,0,0,0,0,0,0,0,0,0,0,0,0,0,0,0,0,0,0,0,0,0,0,0,0,0,0,0,0,0,0,0,0,0,0,0,0,0,0,0,0,0,0,0,0,0,0,0,0,0,0,0,0,0,0,1.138,1.1381,0,1.1448,1.1448,1.1449,1.1437,1.1436,1.1435,1.1434,1.1504,1.1507,1.151,0,0,0,0,0,0,0,0,0,0,0,0,0,1.1245,1.1247,1.138,1.1381,1.1382,1.1447,1.1448,1.1449,1.1438,1.1436,1.1435,1.1433,1.1503,1.1507,1.151,0,0,0,0,0,0,0,0,0,0,0,0,0,1.1307,1.1248,1.138,1.1384,1.1385,1.1447,1.1448,1.145,1.1438,1.1436,1.1434,1.1433,1.1502,1.1506,1.1511,1.1574,0,0,1.1524,1.1526,0,0,0,0,0,0,0,0,1.1304,1.1312,1.1382,1.1384,1.1385,1.1432,1.1426,1.1491,1.1438,1.1418,1.1434,1.1432,1.1482,1.1488,1.1504,1.1577,1.158,1.1525,1.1527,1.1529,1.1531,0,0,0,0,0,0,0,1.1299,1.1309,1.1407,1.1383,1.1385,1.1383,1.139,1.1439,1.1459,1.1419,1.1419,1.1427,1.1482,1.15,1.1506,1.1581,1.1525,1.1529,1.1531,1.1533,1.1714,1.1716,0,0,0,0,0,0,1.1293,1.1306,1.1405,1.1409,1.1339,1.1387,1.1395,1.1419,1.1458,1.1463,1.1428,1.1426,1.1493,1.1501,1.1508,1.1588,1.1529,1.1534,1.1536,1.1712,1.1715,1.1717,0,0,0,0,0,0,1.1291,1.1302,1.1402,1.1357,1.137,1.1392,1.1418,1.1421,1.1439,1.1465,1.1469,1.1443,1.1492,1.1502,1.1559,1.159,1.1536,1.154,1.171,1.1713,1.1716,1.1746,0,0,0,0,0,0,1.1287,1.1301,1.1324,1.1358,1.1372,1.145,1.142,1.1424,1.1447,1.1444,1.148,1.1484,1.1492,1.1552,1.1563,1.1595,1.1543,1.1707,1.1711,1.1715,1.1742,1.1749,1.1756,0,0,0,0,0,1.1282,1.1329,1.1326,1.1338,1.1401,1.1452,1.146,1.1468,1.1449,1.1474,1.1491,1.1483,1.1585,1.1558,1.157,1.1604,1.1705,1.171,1.1715,1.1739,1.1748,1.1756,0,0,0,0,0,0,1.1298,1.1334,1.133,1.1389,1.1418,1.1449,1.148,1.1476,1.1511,1.1507,1.1516,1.1524,1.1582,1.1599,1.1568,1.167,1.1643,1.165,1.1657,1.1666,1.1672,1.1668,1.1547,0,0,0,0,0,1.1309,1.1346,1.1375,1.1425,1.144,1.1458,1.148,1.1484,1.1514,1.1525,1.1547,1.1577,1.1616,1.1642,1.1679,1.1744,1.1754,1.1774,1.1781,1.1787,1.1793,1.1833,1.1844,1.1733,1.1733,1.1733,0,0,1.1331,1.1355,1.1378,1.1429,1.1451,1.1492,1.1468,1.151,1.154,1.1532,1.1587,1.1605,1.1639,1.1701,1.173,1.1717,1.1826,1.1793,1.1797,1.1801,1.1839,1.185,1.1859,1.1736,1.1735,1.1735,0,0,1.1392,1.1413,1.1458,1.1482,1.1517,1.1529,1.1541,1.1574,1.1585,1.1641,1.1637,1.1674,1.174,1.1766,1.1788,1.1864,1.1859,1.1876,1.1912,1.1951,1.196,1.1967,1.1997,1.2008,1.1882,1.1882,1.1882,0,1.1415,1.1475,1.1482,1.1526,1.1551,1.1546,1.1593,1.1616,1.1661,1.1679,1.1664,1.175,1.1772,1.1843,1.1862,1.1879,1.1894,1.1872,1.1958,1.1966,1.1973,1.2002,1.2013,1.1884,1.1884,1.1884,1.1883,0,1.1503,1.1545,1.1577,1.1622,1.165,1.1695,1.1712,1.174,1.1742,1.1757,1.1816,1.1843,1.1888,1.1905,1.1907,1.1977,1.1968,1.1955,1.1928,1.1986,1.2013,1.2024,1.1887,1.1886,1.1886,1.1885,0,0,1.1574,1.1626,1.1638,1.166,1.17,1.1733,1.178,1.1824,1.1849,1.1881,1.1922,1.1981,1.197,1.1995,1.2001,1.2035,1.2097,1.2018,1.2019,1.2034,1.218,1.219,1.2203,1.2094,1.2096,1.2098,1.2178,0,1.1641,1.1723,1.1733,1.1807,1.1848,1.1846,1.1887,1.1917,1.1933,1.1971,1.1989,1.2031,1.2013,1.2029,1.2062,1.2082,1.2127,1.2076,1.2135,1.2137,1.2127,1.2216,1.2227,1.2301,1.2188,1.219,1.2191,0,1.1729,1.1765,1.1843,1.1882,1.1899,1.1936,1.1979,1.2015,1.205,1.206,1.209,1.2092,1.2143,1.2114,1.2187,1.2152,1.2177,1.2191,1.2195,1.2201,1.2168,1.2228,1.2324,1.2337,1.2207,1.2206,1.2205,0,1.1776,1.1845,1.1901,1.192,1.1965,1.1992,1.2012,1.2046,1.2073,1.2111,1.213,1.2173,1.2198,1.2233,1.2248,1.2225,1.2321,1.2292,1.2332,1.2332,1.2353,1.2352,1.2457,1.2366,1.2366,1.2366,1.2366,0,1.185,1.1899,1.1924,1.1959,1.2014,1.2027,1.2082,1.2101,1.2132,1.2173,1.2173,1.2212,1.2229,1.227,1.2283,1.2343,1.2353,1.2364,1.2367,1.2365,1.2364,1.2382,1.2378,1.2369,1.2368,1.2368,1.2367,0,1.1912,1.193,1.1993,1.2031,1.2043,1.2082,1.2116,1.2151,1.2168,1.222,1.2233,1.2259,1.2309,1.2328,1.2387,1.2396,1.2467,1.2464,1.2455,1.2456,1.2496,1.2493,1.2618,1.2637,1.2532,1.2532,1.2533,0,1.1958,1.1996,1.204,1.2067,1.2089,1.2132,1.2161,1.2176,1.2206,1.2252,1.2282,1.2332,1.2372,1.2452,1.2478,1.2525,1.2525,1.2566,1.2532,1.253,1.2529,1.2527,1.2533,1.2572,1.2573,1.2574,1.2575,0,1.204,1.2049,1.2089,1.2135,1.2169,1.2205,1.2241,1.2263,1.2284,1.2318,1.2369,1.2401,1.2464,1.2514,1.2563,1.2586,1.2585,1.2586,1.2598,1.2597,1.2591,1.2598,1.2474,1.2583,1.2582,1.2581,1.2581,1.2581,1.2097,1.2132,1.217,1.2217,1.2245,1.2279,1.2315,1.2338,1.238,1.2433,1.2439,1.2495,1.2534,1.26,1.2626,1.2671,1.266,1.2677,1.2682,1.2686,1.2691,1.2583,1.268,1.2679,1.2679,1.2679,1.2679,0,1.2181,1.2206,1.2249,1.23,1.2337,1.2333,1.2374,1.2406,1.2455,1.2491,1.2532,1.2592,1.2642,1.2673,1.2724,1.2755,1.2756,1.2768,1.2767,1.2773,1.2696,1.2681,1.2766,1.2766,1.2766,1.2766,1.2766,1.2766,1.223,1.229,1.2303,1.2379,1.2404,1.2458,1.2482,1.2515,1.2544,1.2612,1.2654,1.2674,1.2709,1.2763,1.281,1.2818,1.2838,1.2851,1.2859,1.2787,1.2778,1.2769,1.2756,1.2855,1.2855,1.2932,1.2933,1.2934]}]]